Wind_Speed
37 37 36 35 35 35 36 36 36 36 36 36 35 34 32 32 31 29 30 32 33 34 36 35 33 30 27 26 26 26 26 24 23 22 23 26 29 31 34 34 33 31 28 27 26 23 21 22 24 24 24 23 22 22 22 23 23 23 23 23 24 24 24 24 25 26 26 27 28 28 28 28 28 28 27 26 25 24 24 23 23 23 23 23 25
40 40 38 36 35 35 36 36 35 35 34 33 32 32 31 31 31 31 32 34 35 37 37 36 33 28 26 25 25 25 25 25 25 25 25 28 31 33 34 35 35 32 29 28 26 24 23 23 23 25 26 26 25 25 25 25 26 26 27 27 28 29 29 30 31 32 33 34 34 33 31 30 30 30 30 30 28 27 26 25 25 24 24 24 25
45 44 41 39 37 36 36 36 36 34 33 32 32 31 31 31 32 33 35 36 37 38 38 36 33 28 26 26 26 25 25 26 26 27 27 30 34 36 35 33 33 31 28 27 26 25 25 24 24 24 25 25 25 26 26 26 27 28 28 29 30 31 32 33 35 36 36 36 36 35 34 33 32 32 32 32 31 30 29 27 26 26 25 25 26
49 47 43 41 39 37 37 36 35 34 33 32 32 31 30 32 34 36 37 37 38 38 37 35 30 26 26 27 27 27 27 28 30 31 32 34 36 38 37 30 27 27 26 26 25 24 25 26 26 25 25 25 24 25 25 26 27 27 28 28 29 29 30 31 32 32 32 32 31 31 32 33 33 33 33 34 33 33 31 30 29 28 27 27 27
50 48 45 42 39 38 37 35 34 33 33 32 31 30 31 34 36 37 37 38 39 38 36 31 27 26 28 29 30 30 31 33 35 36 36 36 37 38 36 27 23 25 26 24 22 23 24 25 27 28 27 25 23 22 22 23 23 24 24 24 25 26 27 28 28 28 28 28 27 28 28 30 31 33 34 34 35 35 34 33 31 30 29 29 29
50 49 46 43 40 39 37 35 32 31 31 32 31 31 33 34 35 36 38 40 39 36 32 29 27 28 30 30 32 33 35 37 38 38 37 36 36 36 32 24 23 25 26 24 21 22 23 25 26 27 26 25 24 23 22 22 22 23 23 23 23 24 25 26 27 27 27 27 26 26 26 28 30 31 33 34 35 35 35 35 34 32 31 30 30
47 46 44 42 41 38 36 34 31 29 30 31 32 33 34 35 36 37 39 39 36 32 30 29 29 30 31 32 34 36 37 38 38 38 37 37 37 34 26 22 25 25 25 24 24 25 26 26 26 27 27 27 26 26 24 23 23 24 23 23 22 22 23 24 25 25 26 26 26 26 26 27 28 30 32 34 35 35 33 33 34 34 33 31 31
44 42 41 41 40 38 36 34 32 30 29 30 30 31 32 33 35 37 37 35 32 30 29 29 30 32 34 34 35 36 37 38 37 37 38 39 35 27 19 21 24 24 24 25 27 29 30 29 29 30 30 29 29 28 26 26 27 26 25 23 22 21 21 23 23 23 24 25 26 27 27 27 28 29 31 33 35 35 34 32 33 34 34 32 31
42 41 40 39 38 37 36 34 33 31 29 28 28 28 29 31 33 35 33 30 30 29 29 31 34 36 36 35 35 36 36 37 38 39 39 37 28 17 15 19 21 21 24 27 29 31 32 32 33 34 33 31 30 30 30 31 31 29 27 24 22 20 20 21 22 23 24 25 25 26 27 27 27 28 29 30 31 33 34 33 33 34 35 34 32
41 40 39 38 36 35 34 33 31 29 28 27 27 28 29 31 33 33 30 30 31 31 33 36 38 38 37 35 35 35 36 38 40 40 37 31 22 15 15 19 21 21 24 27 28 29 31 32 34 35 34 32 32 32 33 33 31 30 28 26 23 22 21 21 21 22 23 24 24 25 26 26 26 27 27 28 28 30 32 34 34 35 35 34 33
41 40 40 38 36 35 34 31 29 28 27 27 28 30 32 33 34 33 31 31 32 34 35 36 37 37 35 34 35 36 38 39 39 36 30 25 19 17 19 21 24 25 27 29 29 30 32 34 35 35 35 34 33 33 32 31 30 29 28 26 25 23 22 22 23 23 23 23 23 24 25 25 25 26 28 29 29 29 31 34 35 35 34 34 34
44 43 42 40 36 34 32 29 28 29 29 29 31 32 33 33 33 33 33 33 34 34 35 36 36 35 35 35 37 38 38 38 35 30 26 22 20 21 23 24 25 27 29 31 30 31 33 35 34 34 34 32 30 30 29 29 29 28 28 27 26 25 23 24 24 24 23 23 23 24 25 26 26 27 28 30 31 32 32 34 35 35 35 35 35
45 44 41 38 34 31 29 28 30 31 32 33 34 33 32 32 32 33 34 35 35 36 37 38 37 36 37 38 37 37 36 35 31 25 23 21 22 24 26 27 26 27 28 30 30 30 31 32 31 28 28 27 27 28 29 29 30 29 29 29 28 27 25 24 24 24 24 24 24 26 27 27 28 28 29 30 31 33 34 35 36 37 38 38 38
40 39 37 35 32 30 29 30 33 34 34 34 34 32 31 32 33 34 36 37 38 39 40 40 39 39 38 37 35 34 33 32 27 23 23 22 24 27 28 29 29 28 29 30 29 27 27 28 29 27 27 28 28 29 30 30 31 30 29 29 29 28 27 26 25 27 28 27 27 28 29 29 29 30 30 31 31 32 34 35 37 39 40 41 41
37 37 37 35 33 32 32 33 34 34 34 33 32 32 32 33 33 34 36 38 39 39 40 39 38 37 36 34 32 30 31 31 25 22 25 26 27 29 30 32 33 34 34 32 28 26 27 28 31 31 31 30 30 30 31 31 31 31 31 31 31 30 31 31 31 31 31 31 31 31 30 30 30 31 31 31 32 32 33 34 35 36 38 40 42
38 38 37 36 35 34 34 34 33 32 31 31 32 32 32 32 32 32 33 35 36 37 36 36 34 33 33 32 30 28 30 30 25 23 28 30 30 31 32 34 35 36 38 37 35 34 33 34 34 34 34 34 34 34 33 33 33 34 35 36 36 35 36 37 36 34 32 33 34 34 32 32 32 32 32 32 31 31 32 33 33 34 34 36 38
37 38 37 36 35 35 35 34 32 31 31 32 32 31 31 30 30 30 32 33 34 34 34 33 33 32 31 29 28 28 29 29 26 24 27 30 32 33 33 35 36 37 38 39 40 41 41 40 40 39 38 39 39 38 37 36 37 39 40 41 42 42 42 41 40 37 36 36 36 37 36 36 37 36 35 33 32 32 31 31 32 33 34 35 36
36 37 36 36 35 35 34 32 31 31 31 31 30 29 30 30 31 32 33 33 34 34 34 33 32 31 28 26 27 28 26 26 26 25 25 28 32 34 34 34 35 36 36 37 39 41 42 42 42 42 42 42 43 43 41 41 43 45 46 47 47 46 45 44 42 40 38 37 37 38 39 39 40 40 38 36 35 34 32 32 32 33 35 36 37
36 36 37 37 36 35 33 32 31 30 29 28 28 28 29 30 31 32 33 33 33 33 33 33 31 28 24 24 25 26 24 22 22 24 25 26 28 32 35 37 37 37 38 39 39 41 42 42 43 43 44 45 46 46 46 47 49 50 50 50 49 47 46 44 43 40 39 38 37 39 40 41 42 41 39 38 37 36 35 35 35 35 35 36 37
35 35 36 36 36 35 33 31 29 28 27 27 28 29 30 30 31 31 31 31 30 31 32 32 30 26 24 23 23 23 21 20 20 21 22 24 25 27 30 34 37 39 41 42 43 44 45 45 46 46 47 47 48 48 49 49 50 50 50 50 48 47 45 43 42 40 38 38 38 40 41 42 42 41 39 38 38 38 38 38 37 36 36 37 36
35 34 35 35 35 34 32 30 29 29 30 31 32 32 31 31 31 31 30 30 30 30 31 30 29 27 25 23 22 22 20 19 19 19 20 21 22 23 24 27 30 33 36 38 40 42 43 43 44 44 44 44 44 44 44 44 44 44 44 44 44 43 41 40 39 38 37 38 39 41 43 44 44 43 42 41 41 41 40 39 38 37 37 38 37
34 34 34 34 34 33 33 32 32 33 35 37 37 36 35 34 34 32 32 31 31 30 30 30 30 29 27 24 23 22 21 20 20 20 20 21 21 22 24 25 27 29 31 33 34 35 36 36 36 36 36 36 36 36 36 37 37 37 38 38 38 37 37 36 37 37 38 38 39 41 43 45 45 45 44 43 43 43 42 40 39 39 39 38 37
34 34 34 34 35 36 36 37 38 40 41 42 41 40 39 38 36 35 33 32 31 30 30 31 31 30 28 26 25 23 23 23 22 22 21 20 21 22 24 25 26 27 28 30 31 31 32 32 32 32 32 32 32 32 33 33 33 34 34 35 35 34 33 33 34 36 39 41 42 42 42 43 44 45 44 43 43 42 41 40 40 40 40 40 38
34 34 35 36 37 38 40 41 42 43 44 43 42 41 40 39 37 36 34 32 31 30 31 31 32 31 29 28 26 25 25 25 24 23 22 22 22 23 24 25 25 26 27 29 30 31 32 31 31 31 31 31 31 30 30 30 30 30 32 32 33 33 32 32 32 34 37 40 43 44 43 43 44 44 44 43 43 42 42 42 41 41 41 41 41
34 34 35 36 37 39 40 41 41 41 41 41 40 39 38 38 37 35 33 32 31 31 31 32 32 32 31 30 28 27 27 27 27 26 25 24 25 26 27 27 28 28 29 31 32 33 33 32 31 31 31 31 31 30 29 29 29 30 31 31 32 33 33 33 33 33 35 38 41 43 44 43 44 45 45 45 45 45 45 44 44 44 44 44 43
35 35 36 37 38 39 40 40 40 40 39 39 38 37 37 36 35 34 32 31 31 31 32 32 33 33 33 32 31 30 29 29 29 29 28 28 28 29 30 31 31 32 33 34 34 34 34 34 33 33 33 33 33 34 34 34 35 34 34 33 33 33 34 35 35 35 35 36 38 40 42 43 44 45 46 48 49 49 50 50 49 49 50 50 50
35 35 36 37 39 40 40 40 40 39 38 37 36 35 34 34 33 33 33 32 32 33 33 34 34 35 35 34 33 33 32 32 31 31 31 31 31 32 33 34 35 35 36 36 36 36 36 36 36 36 36 37 38 38 39 40 40 40 39 39 38 37 37 37 38 38 37 37 37 38 40 42 43 44 45 47 48 50 52 54 55 55 55 55 56
36 36 36 36 37 38 39 39 39 39 39 38 37 36 35 34 34 34 34 34 34 34 35 36 36 36 36 36 36 35 35 34 33 33 33 33 34 35 36 36 37 38 38 38 38 37 37 38 39 39 39 39 40 41 41 42 43 43 43 43 43 42 41 40 40 40 40 39 39 39 39 39 41 42 43 44 46 48 50 53 55 57 58 59 60
37 37 36 35 34 35 36 38 39 39 39 39 39 38 37 37 36 36 36 36 36 36 36 37 37 37 38 38 38 37 37 36 35 35 35 36 37 38 38 39 40 40 41 41 40 39 38 39 40 41 41 40 40 40 41 42 42 43 44 44 44 43 43 43 43 42 41 40 39 39 40 41 41 42 43 44 45 46 47 49 51 53 56 58 60
38 37 36 35 34 34 34 36 38 39 39 39 39 39 39 38 38 37 37 37 37 37 37 38 39 39 40 40 39 39 38 37 37 36 37 38 40 40 41 41 42 43 43 43 43 42 40 39 41 42 41 40 40 41 41 42 42 43 44 44 42 41 41 42 42 43 42 40 39 40 42 42 41 41 42 45 48 49 50 50 50 51 52 54 55
36 35 35 35 34 34 35 36 37 38 40 40 41 41 40 40 40 39 39 39 39 39 39 40 41 41 41 41 40 40 40 39 38 38 39 40 41 42 43 44 45 45 45 46 46 45 42 41 42 43 41 41 42 44 45 44 43 44 42 39 38 38 40 40 41 41 39 38 40 42 41 39 38 38 40 43 47 50 53 54 54 54 54 54 54
35 35 36 36 36 36 36 37 38 39 40 41 42 43 43 42 42 41 41 41 41 41 41 41 41 42 42 42 42 41 41 40 40 40 41 42 43 44 45 46 47 48 47 47 47 46 44 43 44 44 43 43 45 48 49 45 42 40 36 33 34 36 37 39 40 39 39 40 41 38 35 36 38 40 42 44 47 50 53 55 57 58 58 58 57
34 34 33 34 35 36 37 38 39 40 40 41 41 42 43 43 42 42 42 42 42 42 41 41 41 41 41 41 41 41 41 41 42 43 44 44 45 46 47 48 49 49 49 49 48 47 47 47 47 46 45 45 48 52 49 42 36 34 31 31 32 32 33 34 36 38 40 40 37 34 36 41 44 45 47 47 48 50 52 53 56 58 60 61 61
30 30 31 32 33 34 36 37 38 39 40 40 40 41 41 41 41 41 42 42 42 41 41 40 40 40 40 40 41 41 42 43 44 45 46 47 48 49 50 49 48 49 49 50 49 49 51 51 49 47 45 46 49 48 39 32 30 31 33 33 31 30 29 30 31 34 37 37 37 40 46 47 47 49 50 50 49 50 50 51 53 56 59 61 63
33 33 32 32 32 35 37 38 39 39 39 40 40 40 40 41 42 42 42 43 43 42 41 41 41 41 41 41 42 43 44 45 46 48 49 50 50 50 49 48 47 48 49 50 53 54 55 53 49 46 44 44 43 37 29 27 30 34 37 37 36 33 30 29 30 33 36 39 44 47 48 47 47 49 50 50 50 50 49 50 51 55 58 60 62
35 33 32 33 36 40 42 43 42 42 41 41 41 41 40 41 42 43 43 44 45 45 45 44 44 43 42 43 44 45 46 48 49 50 50 50 49 48 48 48 48 49 51 53 56 57 55 53 49 47 46 43 38 32 30 33 38 40 41 41 41 40 37 34 34 35 37 39 42 43 44 46 48 49 50 51 51 50 49 48 49 51 56 60 62
35 34 35 38 42 44 45 46 46 45 44 43 42 43 42 42 42 42 43 45 46 47 47 47 46 45 44 45 46 47 48 49 49 49 49 49 48 49 49 50 51 53 55 57 57 56 55 53 50 48 47 45 40 35 35 38 42 43 44 43 43 43 43 42 42 42 42 43 43 45 47 49 50 51 51 52 52 51 50 48 47 48 51 57 62
38 38 41 44 47 46 46 47 47 47 47 46 45 44 44 44 45 45 46 47 48 48 48 48 48 46 46 47 48 48 49 49 49 49 49 49 50 50 51 53 55 56 57 57 56 56 55 53 51 48 46 47 44 39 37 39 42 44 45 46 46 45 45 46 47 48 49 49 50 50 52 53 55 56 56 55 54 53 51 49 48 47 49 52 57
43 44 46 48 49 48 46 47 47 47 47 48 48 46 45 45 46 46 47 47 47 48 48 49 49 48 48 49 49 50 51 51 51 51 51 51 52 53 54 56 57 57 56 56 56 56 56 55 53 50 48 49 48 45 41 41 44 46 48 49 50 50 50 49 50 52 54 54 54 55 58 59 61 62 61 60 58 56 55 53 50 49 49 50 53
48 49 50 51 52 50 47 46 46 46 46 48 48 48 47 46 46 46 46 47 47 47 47 48 49 50 50 51 52 53 53 54 54 54 54 54 54 56 57 57 56 55 54 54 54 55 56 56 55 53 52 52 51 48 46 46 47 49 52 54 56 57 56 55 55 56 58 57 57 59 62 65 66 68 67 64 62 60 58 56 54 52 51 51 52
52 53 54 54 53 50 47 47 47 47 47 47 48 48 48 48 47 46 46 46 46 46 47 48 49 50 51 52 53 54 55 56 57 57 57 57 58 58 58 57 55 54 53 52 52 53 54 55 55 55 55 54 52 50 50 50 50 52 55 59 61 61 61 60 60 61 61 61 61 62 65 68 70 72 71 69 68 65 62 60 58 57 55 53 53
55 56 57 56 54 51 50 50 50 50 49 49 49 49 49 49 48 47 46 46 45 46 46 47 48 50 52 54 55 56 58 59 60 61 61 61 61 60 58 56 55 54 53 53 53 52 52 53 53 54 55 55 54 53 52 53 54 56 59 63 65 65 65 65 63 64 64 65 65 66 68 71 73 75 76 75 73 70 66 62 60 60 59 57 55
57 57 57 57 56 55 55 55 54 53 53 52 51 51 50 49 48 48 47 47 47 47 48 49 50 52 54 56 57 59 60 62 63 63 63 62 61 58 57 57 57 56 55 55 55 54 54 53 53 54 55 55 55 55 55 56 57 59 63 67 69 69 70 69 67 67 68 68 69 70 72 74 77 79 80 79 76 72 67 64 62 61 61 61 59
57 57 57 57 57 57 57 57 56 56 55 54 53 52 51 50 49 48 48 48 49 49 50 51 53 55 56 57 59 60 62 63 64 64 63 61 59 58 58 59 60 59 58 57 57 57 57 56 56 56 56 57 57 57 58 59 61 64 68 71 73 73 74 73 71 70 71 71 72 74 76 79 82 83 83 81 78 73 68 65 63 62 63 63 62
59 58 58 57 57 57 57 57 57 57 56 55 53 52 52 52 51 50 50 50 50 50 51 52 53 54 55 56 57 58 59 60 61 61 61 60 60 61 62 62 63 63 62 61 60 60 60 59 58 58 58 59 59 60 61 63 65 68 71 74 76 77 77 76 74 73 74 74 76 78 80 83 86 87 86 82 78 74 69 67 65 64 64 63 63
63 62 60 58 57 56 55 55 55 55 54 54 53 53 53 53 53 53 52 52 52 52 52 53 54 55 55 55 56 57 58 59 60 61 62 63 64 65 65 66 65 65 65 64 63 63 62 61 61 61 61 61 62 63 65 67 68 71 74 76 78 79 79 77 76 76 76 78 80 82 85 88 90 90 87 83 79 74 71 69 68 66 65 65 64
68 66 63 60 58 55 53 53 53 53 52 51 52 53 54 54 55 55 55 54 53 52 52 53 54 55 56 57 58 60 62 63 64 66 67 68 68 69 69 69 68 68 67 67 66 65 65 64 64 64 64 65 65 67 68 69 71 75 78 80 81 81 80 79 78 78 79 81 84 87 89 91 92 90 87 83 80 77 74 72 71 69 67 66 66
71 68 65 64 62 59 56 54 55 56 56 55 54 54 53 53 53 55 55 54 54 53 53 54 55 55 57 59 61 64 66 68 70 71 72 73 72 73 73 72 71 71 70 70 69 69 68 68 67 68 68 69 70 71 72 74 77 79 81 82 83 82 81 80 81 82 84 87 90 92 92 91 89 87 85 83 81 79 77 75 74 72 70 68 68
73 69 65 64 63 61 60 57 55 57 60 61 60 59 57 55 54 55 56 55 55 55 55 56 56 58 61 64 66 68 70 72 73 74 75 75 75 75 75 75 75 74 74 74 74 74 73 73 74 74 75 75 76 77 78 79 81 82 83 83 83 84 84 86 88 90 92 93 94 93 91 88 86 84 83 82 82 81 80 78 77 76 73 71 70
73 69 66 65 62 61 61 59 56 56 59 61 60 60 60 59 58 58 58 57 57 58 58 59 62 65 68 70 72 73 75 76 77 78 78 78 77 77 77 77 76 76 76 76 76 77 77 78 79 79 80 80 81 82 82 83 83 84 85 85 86 89 92 94 95 96 96 95 93 90 88 86 85 84 83 82 83 83 82 81 80 80 77 75 73
73 71 69 67 65 65 65 63 59 59 61 64 65 65 64 63 63 63 64 63 64 65 66 69 72 75 75 75 76 77 78 79 81 82 81 80 80 80 79 79 79 78 78 78 78 79 80 81 82 83 84 85 85 86 86 87 87 88 89 90 93 96 97 97 97 96 95 93 91 90 88 87 86 85 84 83 83 84 85 85 84 83 81 78 75
Wind_Direction
286 287 285 282 282 282 282 283 286 290 293 294 292 290 288 287 286 285 286 290 295 300 303 304 303 300 297 296 296 297 299 300 299 300 303 304 303 299 295 291 289 289 291 292 291 287 285 283 276 270 269 268 266 265 263 262 260 260 260 261 261 260 260 261 264 266 268 270 270 268 267 266 264 263 261 260 260 259 259 258 257 258 259 260 259
286 288 287 284 282 283 284 285 288 291 293 292 289 286 284 283 281 280 282 287 292 299 303 303 301 298 295 294 297 300 300 299 299 302 303 305 308 307 299 289 285 287 287 285 284 282 280 280 278 273 269 268 269 268 267 266 266 266 266 266 267 267 267 268 270 270 272 274 274 271 268 265 264 263 262 261 260 258 257 256 255 255 256 257 257
286 288 287 284 282 283 286 289 291 292 291 290 287 284 282 281 280 279 281 285 290 297 300 300 297 294 292 293 297 300 298 294 294 294 294 298 305 311 308 295 285 285 284 279 277 277 276 273 271 272 269 267 268 267 267 267 267 268 269 270 270 271 272 273 273 274 275 275 274 271 267 263 260 259 259 258 256 255 254 253 253 253 253 254 254
285 286 285 283 283 284 287 289 291 291 290 289 287 283 281 280 281 282 284 287 292 298 298 296 292 290 291 294 296 298 295 292 291 291 291 293 298 307 312 302 286 282 277 272 271 271 270 266 264 269 272 270 269 268 268 269 269 271 272 273 274 274 274 274 275 275 275 274 273 270 266 261 257 254 254 253 252 252 251 251 251 251 250 251 251
284 284 283 281 282 285 287 288 289 289 287 286 283 280 279 279 280 282 286 290 295 298 295 290 287 288 291 293 294 294 293 293 294 294 294 294 297 305 310 299 280 273 268 264 265 267 265 260 261 266 270 271 270 268 268 270 271 273 275 276 277 277 276 275 274 274 273 273 272 271 268 264 259 254 252 251 250 250 250 251 252 252 250 249 249
282 282 281 280 282 284 285 287 287 286 284 281 278 275 274 276 279 283 287 292 295 294 288 284 285 289 291 291 291 291 292 293 295 295 296 296 300 307 308 290 271 267 263 257 255 260 262 260 260 263 266 268 269 269 268 270 272 275 278 279 281 281 280 279 276 274 272 270 269 269 269 267 263 259 255 253 251 250 251 252 253 254 252 250 249
281 281 280 279 280 283 285 286 286 284 283 280 277 274 274 276 281 285 289 292 292 288 283 283 286 289 290 289 289 291 293 294 295 295 296 299 303 307 301 275 262 261 258 253 248 251 256 257 258 259 263 267 270 271 270 272 277 280 281 283 284 284 283 280 278 276 273 270 268 267 268 268 266 262 259 255 252 250 251 254 255 254 253 251 250
283 282 281 280 280 281 283 284 284 283 282 280 277 277 278 281 285 287 290 290 287 283 281 281 284 287 288 288 290 293 294 294 295 296 299 302 305 303 285 262 259 258 254 250 247 247 250 254 256 259 264 268 270 271 272 277 282 282 283 284 284 283 282 280 279 277 276 273 270 269 268 267 265 263 262 259 255 252 252 255 256 254 253 252 251
284 285 284 283 282 283 284 283 283 282 281 280 279 280 283 286 288 290 290 287 282 280 278 278 282 286 287 288 292 295 295 294 296 300 303 305 302 285 260 258 261 258 254 252 252 251 251 254 257 262 267 270 269 270 273 279 282 282 283 284 283 282 282 282 282 280 278 275 273 272 270 268 265 264 263 261 258 255 252 253 255 253 252 252 251
284 285 286 286 286 286 286 286 285 284 282 281 282 283 287 290 290 291 289 283 279 278 277 279 282 285 287 290 294 295 294 296 300 305 307 304 293 261 243 251 252 251 254 259 263 263 262 263 264 266 268 269 269 271 275 280 282 282 283 283 283 283 285 289 291 288 282 278 275 272 269 266 264 261 261 261 260 257 253 253 254 252 251 251 251
282 284 286 286 287 288 289 290 288 285 284 283 284 286 289 290 290 290 286 280 279 279 280 281 283 285 287 290 293 294 295 299 303 306 306 298 279 253 243 244 244 248 256 263 268 272 273 272 270 267 266 267 270 273 276 278 280 281 281 281 282 284 288 295 296 292 287 282 278 273 268 264 262 259 257 257 258 257 255 254 253 251 249 250 251
281 283 285 286 288 290 289 287 282 280 280 281 284 287 287 287 288 287 284 281 281 281 281 284 284 285 287 290 293 295 298 301 303 304 300 286 262 251 250 248 247 252 258 263 268 271 272 271 269 266 266 266 269 272 273 275 277 278 279 280 282 285 291 298 296 290 288 287 283 280 275 268 263 260 258 256 255 254 254 253 253 252 251 252 253
280 282 283 285 288 287 283 277 274 274 277 280 283 286 286 286 286 285 283 282 282 281 282 284 285 284 287 290 294 298 300 302 303 298 288 270 251 247 251 253 253 253 255 258 262 265 265 265 265 265 266 266 266 270 273 275 276 277 280 283 285 288 294 299 295 289 290 290 286 284 281 274 268 262 258 257 256 255 254 254 254 254 254 255 256
281 281 282 284 285 281 275 271 270 273 276 280 284 286 287 286 285 283 282 282 282 282 283 284 285 285 287 291 295 300 301 301 300 288 272 255 245 244 245 248 251 251 252 255 256 256 254 256 261 266 268 267 266 268 271 274 277 278 282 286 289 292 294 296 293 292 296 295 291 287 282 278 273 267 261 258 258 257 257 257 256 256 257 257 257
280 281 282 283 282 277 273 272 272 275 278 282 285 286 286 285 283 281 281 282 282 282 283 283 285 286 288 293 297 299 299 298 293 277 263 250 242 243 244 246 248 249 253 255 254 251 250 252 259 263 266 266 267 269 271 273 276 278 281 284 288 289 290 292 293 295 296 293 290 287 282 278 274 269 267 264 261 259 258 259 259 259 260 259 259
280 281 281 281 279 276 274 274 275 278 281 283 285 285 285 284 283 282 281 282 283 283 283 283 284 287 290 294 296 297 298 295 287 269 258 250 243 243 245 247 249 250 253 254 254 254 256 258 260 262 264 266 268 271 274 276 276 277 279 282 285 286 288 291 293 293 290 286 284 283 280 276 272 270 270 268 265 262 259 258 259 261 262 263 262
282 282 281 279 277 276 276 277 278 280 282 283 284 284 284 283 283 282 282 283 283 283 283 283 284 288 291 293 295 298 299 295 287 273 260 253 250 249 249 250 251 252 254 255 255 256 259 262 264 266 268 269 271 273 276 278 280 281 283 284 286 287 288 289 290 289 285 282 281 279 276 272 271 272 272 269 267 265 262 260 260 261 264 265 265
282 282 280 279 277 277 277 277 278 280 281 281 282 283 284 283 283 283 284 284 284 283 283 283 285 288 289 290 296 301 301 297 291 282 271 262 257 256 257 259 259 260 260 259 259 260 262 264 267 269 270 271 273 275 277 278 281 284 286 287 288 288 288 287 287 285 282 279 276 272 269 267 269 271 272 270 269 269 268 267 266 265 267 267 266
280 281 280 279 279 278 277 276 276 277 278 281 284 285 285 284 284 285 286 286 284 283 283 283 285 285 282 287 297 301 302 301 296 290 285 278 269 263 261 263 266 268 268 269 269 269 269 271 272 273 274 275 277 278 280 281 283 284 286 287 287 286 285 284 283 281 278 274 269 266 264 263 265 267 269 270 271 272 273 273 272 271 271 270 268
278 280 280 279 278 276 274 273 273 274 278 283 286 286 285 285 285 286 287 286 283 282 282 283 282 279 278 285 296 300 301 301 298 295 292 289 285 279 273 270 270 270 272 273 274 275 276 277 278 279 280 281 282 282 283 283 284 284 284 284 284 283 281 280 279 276 273 269 265 261 260 260 262 263 264 265 268 270 272 273 273 272 271 270 269
278 278 278 278 276 273 271 269 270 274 279 283 286 286 286 286 286 287 287 284 282 280 280 280 277 275 277 285 293 297 298 298 297 297 296 296 295 293 290 285 281 279 278 278 279 279 280 281 282 283 283 284 284 284 285 285 286 286 285 284 282 281 279 276 274 272 269 266 263 260 257 258 260 262 264 265 266 268 270 271 272 271 270 268 267
277 277 276 275 272 269 268 267 270 275 279 282 285 286 286 286 287 287 285 282 280 279 277 275 273 273 276 283 290 294 295 296 297 298 298 299 297 295 293 290 288 287 285 284 284 284 285 285 286 287 288 288 289 290 290 290 291 290 289 286 283 281 278 274 271 268 267 265 264 261 259 258 259 262 264 266 267 268 268 268 269 270 270 269 266
277 275 274 272 270 268 267 268 271 275 279 282 284 284 285 285 285 284 282 280 277 276 273 271 270 271 275 282 287 290 292 293 295 296 295 294 293 290 288 288 289 289 288 288 287 288 289 290 291 292 293 294 295 296 296 295 295 294 292 290 286 283 279 274 270 267 265 264 264 263 262 260 260 261 263 265 267 267 267 266 266 267 267 267 266
278 275 272 270 269 268 268 269 271 274 277 279 281 282 282 282 282 281 279 277 274 273 271 268 267 269 274 280 284 287 288 290 292 291 289 288 288 286 286 288 290 290 291 290 290 291 291 292 292 292 293 295 296 297 296 296 295 295 294 292 289 286 281 277 272 268 265 263 262 262 262 261 261 262 263 264 265 266 267 267 266 266 265 265 264
283 280 276 273 271 270 270 270 272 273 275 277 278 279 279 279 279 278 276 274 272 271 269 266 264 267 273 278 280 283 284 287 289 288 285 284 284 285 286 287 289 291 291 291 291 292 291 291 289 288 288 290 291 292 291 289 289 289 290 289 288 286 284 280 275 271 268 264 262 261 260 260 260 261 261 262 262 262 262 263 262 262 262 262 261
282 280 277 275 273 272 272 273 273 274 274 275 275 276 276 275 276 276 274 273 271 269 267 264 263 267 273 276 278 281 283 286 287 285 282 281 281 282 284 286 289 291 292 292 292 291 290 288 286 283 282 281 281 281 281 281 281 281 282 282 282 282 281 280 277 274 271 268 265 263 261 261 260 260 260 259 258 258 258 258 258 257 258 258 258
278 276 274 272 271 271 271 271 272 272 272 273 272 273 273 273 274 274 273 272 270 268 265 263 264 268 274 276 277 280 283 285 284 281 279 279 278 279 281 285 286 288 290 291 291 289 288 287 285 282 279 278 278 277 278 278 279 279 279 280 280 279 277 277 277 276 274 271 268 266 264 264 263 263 262 261 260 258 257 257 257 257 257 257 258
277 276 275 273 271 270 269 269 269 269 270 270 270 271 271 271 272 272 271 270 268 266 265 264 265 270 273 275 278 280 281 283 282 280 278 276 275 276 279 282 284 286 288 290 289 288 288 288 286 284 283 283 283 283 282 281 280 280 280 280 280 280 277 274 273 274 274 272 270 268 265 264 264 264 265 264 264 262 260 259 258 258 258 258 259
278 277 276 275 274 272 270 269 268 268 269 270 270 270 270 270 270 270 269 268 267 265 265 265 268 271 273 275 277 279 279 279 279 278 277 274 273 274 276 279 281 284 287 289 289 286 287 289 288 286 285 285 287 287 285 285 285 283 282 281 282 281 278 275 272 270 269 268 267 266 264 262 262 262 263 263 263 263 262 262 260 259 259 258 259
277 276 276 276 276 275 273 271 269 269 269 269 269 269 269 269 268 268 267 267 267 266 266 267 269 272 273 274 275 276 276 276 276 275 274 273 272 273 275 277 280 283 286 288 288 286 287 289 290 287 284 284 286 287 287 287 287 286 284 283 282 281 279 277 274 271 267 265 263 263 262 262 262 264 266 266 264 262 261 260 260 260 260 260 260
275 276 276 277 278 278 277 274 272 270 268 268 268 269 269 269 268 268 267 267 267 266 267 268 270 271 272 272 273 273 274 275 274 273 272 272 272 272 274 276 279 282 285 287 288 287 285 288 291 288 283 283 284 287 287 285 285 286 285 283 282 283 282 280 277 273 268 262 260 260 261 263 267 273 277 277 273 270 266 262 261 260 260 261 262
273 275 277 278 279 279 278 277 275 272 270 269 269 269 270 270 270 270 269 267 267 267 267 268 269 270 271 272 273 274 275 275 274 272 271 271 271 272 273 276 279 282 284 285 287 286 284 287 291 289 283 281 284 288 288 283 282 283 282 283 284 285 285 282 279 275 268 262 260 261 265 271 275 278 281 282 280 277 274 270 267 264 262 261 261
273 275 278 280 281 281 281 280 278 276 275 274 273 273 273 273 272 271 270 268 267 267 268 269 270 271 272 273 273 274 274 273 272 272 271 271 271 272 273 276 278 280 283 285 285 284 284 287 290 288 281 281 288 292 288 280 277 278 279 285 287 286 286 286 283 280 274 267 263 267 275 279 280 282 285 287 286 282 278 275 273 270 267 265 263
271 275 280 284 287 287 287 286 284 281 280 280 280 279 278 276 274 272 270 269 269 269 270 270 270 271 272 272 273 273 272 271 271 271 271 271 271 272 273 275 277 279 282 283 284 284 285 287 288 285 280 285 292 292 284 273 270 275 280 286 288 287 285 284 285 284 279 273 272 277 283 285 287 290 292 293 291 287 282 277 274 271 269 268 266
275 279 282 286 291 293 294 294 291 288 286 284 283 282 280 278 275 272 271 271 271 272 272 271 271 271 271 272 272 271 271 270 269 270 271 272 273 274 275 276 278 280 281 283 285 286 288 288 287 283 281 287 291 285 274 267 271 279 285 288 291 291 287 280 278 278 275 273 276 282 287 290 294 298 299 297 294 290 286 280 275 271 267 265 265
278 281 283 289 296 298 299 297 295 294 292 289 286 284 282 280 277 274 273 273 274 274 274 273 272 272 271 270 269 268 268 269 270 271 272 273 274 276 278 279 280 281 283 286 287 288 288 287 285 281 280 285 286 277 271 274 277 283 290 293 295 295 293 288 283 280 278 278 282 287 292 297 301 304 304 301 297 293 288 282 278 274 268 263 261
280 282 286 293 299 301 299 296 295 294 292 289 287 285 284 281 277 275 276 276 276 275 274 274 273 271 268 266 265 266 267 268 269 271 272 273 276 278 280 282 283 285 286 288 287 287 286 284 282 279 278 281 283 277 272 275 278 284 292 297 299 298 296 295 293 291 291 291 293 296 299 303 306 307 308 305 301 296 292 286 282 280 275 268 262
283 286 290 295 300 300 297 293 293 292 290 289 288 286 285 282 279 279 279 279 277 275 273 272 271 269 267 265 265 266 267 267 269 270 272 274 277 279 281 283 286 287 288 288 287 286 285 283 281 279 276 279 283 281 278 277 279 285 294 299 302 301 300 298 297 296 296 297 299 301 303 306 308 309 310 309 305 301 296 291 287 285 282 277 269
286 289 293 297 299 299 294 291 290 289 289 289 289 288 286 284 282 281 280 279 278 275 273 272 271 269 267 265 266 266 267 267 268 270 271 273 275 278 281 284 286 287 287 287 287 286 284 283 282 279 277 281 283 283 284 283 282 287 295 300 303 304 303 302 301 300 299 300 302 303 304 306 307 309 310 311 309 305 300 295 291 288 286 284 278
290 293 295 297 298 296 292 288 287 288 289 290 290 289 287 285 283 282 280 279 278 276 275 273 271 270 268 267 267 268 269 269 270 270 271 273 275 278 281 284 286 286 286 287 287 286 285 283 282 280 281 285 286 286 287 287 286 289 295 300 304 305 305 304 303 302 301 301 302 303 303 303 305 307 310 311 311 308 302 297 293 290 288 287 284
292 294 295 295 294 292 289 287 287 287 288 289 288 287 286 285 284 282 280 279 277 276 275 273 271 270 269 269 269 269 270 271 272 273 274 275 278 281 283 284 286 286 286 286 286 286 285 284 283 282 284 287 288 288 289 289 288 290 295 299 302 304 304 304 302 301 301 301 302 302 301 301 303 306 309 310 310 308 303 298 295 292 290 289 287
292 292 292 292 291 289 287 286 287 288 289 288 287 285 284 283 283 282 280 279 277 276 275 274 272 270 269 269 269 270 271 272 274 275 277 278 281 283 284 285 286 287 287 287 286 285 285 284 284 284 285 287 288 289 288 287 288 289 293 298 300 302 303 303 301 301 301 301 302 301 300 300 302 305 307 308 308 306 302 297 294 292 291 290 288
290 290 291 290 290 289 289 289 290 291 291 291 288 285 283 283 282 281 280 279 277 276 275 274 273 271 270 270 270 271 272 274 275 277 278 280 281 282 283 285 287 288 288 289 289 288 287 287 287 287 288 289 289 289 288 287 287 289 292 296 298 300 301 302 301 301 301 301 301 300 299 300 302 304 305 305 305 304 300 296 293 291 290 290 289
287 288 289 290 290 291 291 292 293 293 293 292 289 285 283 282 280 279 277 276 275 274 274 274 273 273 273 274 274 274 274 275 276 277 278 279 280 282 284 287 290 291 291 291 291 291 290 290 290 290 290 290 290 289 288 287 288 289 292 295 297 299 300 301 301 300 299 299 298 298 298 300 302 303 303 302 302 300 297 294 292 291 290 289 289
285 286 287 288 288 290 291 293 294 293 292 290 287 284 282 280 279 278 277 276 275 275 276 276 277 277 277 277 276 276 276 276 276 277 278 280 282 285 288 290 292 293 293 293 292 291 290 289 288 288 288 288 288 287 286 286 287 289 291 294 295 296 298 298 299 298 297 296 297 297 299 300 300 301 300 299 299 297 295 293 292 290 289 288 288
283 284 284 284 285 287 289 291 291 290 288 287 285 282 281 280 280 280 279 279 278 279 279 280 281 281 281 281 281 280 280 280 281 282 283 285 287 288 290 291 292 291 291 291 290 289 288 287 286 285 285 284 283 283 283 284 285 286 288 290 292 294 295 296 296 295 295 295 296 297 298 298 299 298 298 297 296 295 294 293 292 291 289 288 288
281 282 282 280 279 281 284 285 284 282 282 284 282 281 281 281 282 282 281 281 281 281 281 282 282 283 284 285 286 286 286 287 287 287 288 288 289 289 289 289 289 289 288 287 287 286 285 285 284 284 283 282 281 281 281 281 283 285 287 289 290 292 293 294 294 293 293 294 295 296 296 296 296 296 295 295 295 294 293 293 292 291 290 289 288
278 278 278 277 277 277 278 279 280 278 276 276 276 277 279 281 281 282 282 282 282 282 282 281 281 281 282 284 284 284 285 286 286 286 287 287 287 287 287 287 286 286 285 284 283 283 282 282 282 281 280 280 280 280 280 281 282 284 286 288 290 291 292 292 292 292 293 293 294 294 294 294 293 293 293 293 293 293 293 293 292 291 291 290 288
275 276 275 275 276 277 276 277 279 279 277 275 273 273 274 275 275 276 278 279 278 278 278 277 277 279 281 282 283 283 283 283 283 284 284 284 284 284 284 284 284 283 283 283 282 281 281 280 280 279 279 279 280 280 280 282 283 285 287 289 290 291 291 292 292 292 292 292 292 292 292 291 291 291 291 292 292 293 293 293 293 292 291 290 289
273 273 272 272 273 274 274 275 277 277 276 275 274 274 273 272 272 272 273 273 272 271 271 271 273 277 280 281 283 284 285 285 284 283 283 283 282 282 282 282 282 282 281 281 281 281 281 281 280 280 280 280 281 281 282 283 285 286 287 287 288 290 290 291 291 291 291 291 291 291 291 291 291 291 291 292 292 293 293 293 293 293 292 292 291
272 272 271 271 270 270 270 272 272 271 270 271 273 274 274 273 272 272 271 271 271 271 272 273 275 277 278 280 281 283 284 285 285 284 282 281 280 280 280 280 280 280 280 280 280 280 280 281 281 281 282 282 282 282 283 283 284 285 285 286 288 290 291 291 291 291 291 291 291 291 291 291 291 291 292 292 292 293 294 294 294 294 293 293 292
Height
10733 10733 10734 10734 10733 10733 10732 10733 10733 10734 10733 10733 10732 10732 10732 10731 10732 10732 10732 10732 10731 10730 10729 10729 10729 10728 10727 10726 10725 10724 10723 10723 10723 10723 10723 10722 10720 10719 10719 10718 10718 10719 10719 10718 10717 10717 10717 10717 10717 10717 10718 10718 10719 10719 10720 10720 10721 10721 10722 10722 10722 10722 10723 10723 10723 10724 10724 10724 10724 10725 10725 10725 10725 10725 10725 10725 10726 10726 10726 10726 10727 10727 10727 10727 10728
10730 10729 10730 10730 10730 10729 10728 10728 10730 10730 10730 10730 10729 10729 10729 10729 10729 10730 10729 10729 10728 10727 10726 10725 10725 10725 10724 10724 10722 10721 10720 10719 10720 10720 10721 10720 10718 10717 10715 10715 10714 10715 10715 10714 10714 10715 10715 10715 10715 10715 10715 10716 10716 10717 10718 10718 10718 10719 10719 10719 10719 10720 10720 10720 10721 10721 10721 10721 10721 10721 10721 10722 10722 10722 10722 10722 10723 10723 10723 10723 10724 10724 10724 10725 10725
10726 10726 10726 10727 10726 10726 10725 10724 10725 10726 10726 10727 10727 10726 10726 10726 10727 10727 10727 10726 10726 10725 10723 10722 10722 10721 10721 10721 10720 10719 10718 10718 10718 10718 10718 10717 10716 10714 10712 10711 10711 10711 10711 10711 10711 10712 10713 10713 10713 10712 10712 10713 10713 10714 10714 10715 10715 10715 10716 10716 10716 10717 10717 10717 10717 10717 10717 10717 10717 10717 10718 10718 10718 10719 10719 10719 10719 10720 10720 10720 10721 10721 10722 10722 10722
10722 10722 10722 10722 10723 10722 10722 10721 10721 10721 10722 10723 10723 10723 10723 10724 10724 10724 10724 10723 10722 10721 10720 10719 10719 10718 10718 10718 10718 10718 10717 10716 10716 10715 10715 10715 10714 10712 10710 10708 10708 10708 10708 10708 10708 10710 10710 10710 10710 10710 10710 10710 10710 10711 10711 10711 10712 10712 10713 10713 10713 10713 10714 10714 10713 10713 10713 10713 10713 10713 10714 10714 10714 10715 10715 10715 10716 10716 10717 10717 10717 10718 10718 10719 10720
10717 10718 10718 10719 10719 10719 10719 10719 10718 10718 10718 10719 10720 10721 10721 10721 10722 10722 10720 10720 10719 10718 10717 10716 10716 10716 10716 10715 10715 10715 10714 10714 10713 10713 10712 10712 10711 10710 10707 10706 10705 10705 10705 10706 10707 10707 10707 10707 10708 10708 10708 10708 10708 10708 10708 10709 10709 10709 10710 10710 10710 10710 10710 10710 10710 10710 10709 10709 10710 10710 10710 10710 10711 10711 10711 10712 10712 10713 10713 10714 10714 10715 10716 10716 10716
10713 10713 10714 10714 10715 10715 10715 10715 10715 10715 10715 10716 10717 10718 10718 10718 10719 10718 10717 10716 10715 10714 10714 10714 10714 10713 10713 10713 10713 10712 10711 10710 10710 10710 10709 10709 10708 10707 10705 10703 10702 10703 10703 10704 10705 10705 10704 10705 10706 10706 10706 10706 10706 10706 10706 10706 10706 10706 10707 10707 10707 10707 10707 10707 10706 10706 10706 10706 10707 10707 10707 10707 10707 10707 10708 10708 10709 10710 10710 10711 10712 10712 10713 10713 10713
10709 10709 10709 10710 10711 10711 10711 10712 10712 10712 10713 10714 10715 10715 10716 10716 10716 10715 10714 10712 10711 10711 10711 10711 10711 10711 10710 10710 10710 10708 10707 10707 10707 10706 10706 10705 10704 10703 10702 10700 10700 10700 10701 10702 10702 10702 10702 10703 10703 10704 10704 10704 10704 10704 10704 10704 10704 10704 10704 10704 10703 10703 10703 10703 10703 10703 10703 10704 10704 10704 10704 10704 10704 10704 10704 10705 10706 10706 10707 10708 10708 10709 10710 10710 10711
10704 10705 10706 10707 10707 10708 10708 10708 10709 10709 10710 10711 10712 10712 10713 10713 10713 10712 10711 10709 10708 10708 10708 10709 10708 10708 10707 10707 10706 10705 10704 10703 10703 10703 10702 10701 10700 10699 10699 10699 10698 10698 10699 10699 10698 10699 10699 10700 10701 10701 10702 10702 10702 10702 10702 10702 10701 10701 10701 10701 10701 10700 10700 10700 10700 10701 10701 10700 10700 10700 10700 10700 10700 10700 10700 10701 10702 10703 10704 10704 10705 10706 10706 10707 10708
10699 10701 10701 10702 10704 10704 10705 10705 10706 10706 10707 10708 10708 10709 10710 10710 10710 10708 10707 10705 10705 10706 10706 10706 10705 10704 10704 10704 10703 10702 10701 10700 10699 10699 10698 10696 10695 10695 10697 10698 10697 10696 10695 10695 10696 10696 10697 10698 10698 10699 10700 10700 10700 10699 10699 10699 10699 10699 10699 10698 10698 10698 10698 10698 10698 10698 10698 10697 10697 10697 10697 10697 10697 10697 10697 10697 10698 10699 10700 10701 10701 10702 10703 10704 10705
10696 10697 10697 10698 10699 10700 10701 10701 10702 10703 10703 10704 10705 10706 10707 10707 10706 10705 10703 10702 10702 10703 10704 10703 10702 10701 10700 10700 10700 10699 10697 10696 10695 10693 10692 10691 10691 10692 10694 10695 10694 10694 10693 10693 10694 10695 10695 10696 10696 10696 10697 10696 10696 10696 10696 10696 10696 10696 10696 10696 10695 10695 10696 10696 10696 10695 10695 10695 10694 10694 10694 10694 10694 10694 10694 10694 10695 10695 10696 10697 10698 10699 10699 10700 10701
10694 10694 10694 10695 10695 10696 10696 10697 10698 10699 10700 10701 10702 10703 10703 10703 10702 10701 10700 10699 10700 10700 10700 10700 10698 10697 10697 10697 10697 10695 10694 10693 10691 10689 10688 10687 10687 10689 10690 10690 10691 10691 10691 10691 10692 10693 10693 10693 10693 10693 10693 10693 10693 10693 10693 10693 10693 10693 10693 10693 10693 10693 10694 10694 10694 10693 10692 10692 10692 10691 10691 10691 10691 10691 10691 10691 10692 10692 10692 10693 10694 10695 10696 10696 10697
10691 10691 10691 10692 10692 10692 10692 10693 10694 10695 10697 10698 10699 10700 10700 10700 10699 10697 10696 10696 10696 10697 10696 10696 10695 10694 10693 10693 10693 10692 10691 10690 10688 10686 10685 10685 10685 10686 10686 10687 10688 10689 10689 10689 10690 10690 10690 10689 10689 10689 10689 10689 10690 10689 10690 10690 10690 10690 10690 10690 10691 10691 10691 10691 10690 10689 10689 10689 10689 10689 10688 10688 10688 10688 10688 10688 10688 10688 10689 10689 10690 10691 10692 10692 10693
10687 10687 10688 10688 10689 10688 10689 10690 10691 10692 10694 10695 10696 10696 10696 10696 10695 10694 10693 10692 10692 10693 10693 10693 10691 10690 10690 10690 10689 10688 10687 10686 10685 10683 10683 10683 10683 10684 10684 10685 10687 10688 10687 10687 10688 10688 10687 10685 10684 10685 10686 10686 10686 10686 10686 10687 10687 10687 10686 10687 10687 10687 10687 10687 10686 10685 10686 10687 10687 10686 10685 10685 10685 10685 10684 10684 10684 10685 10685 10686 10686 10687 10688 10688 10689
10683 10684 10684 10685 10685 10685 10686 10687 10688 10689 10690 10691 10692 10692 10693 10692 10692 10691 10689 10689 10689 10689 10689 10689 10688 10687 10686 10686 10686 10685 10684 10683 10682 10681 10680 10681 10681 10681 10682 10683 10684 10685 10685 10684 10685 10685 10684 10682 10681 10682 10682 10683 10683 10683 10683 10684 10683 10683 10683 10683 10684 10683 10682 10682 10681 10680 10681 10682 10682 10681 10681 10682 10681 10681 10681 10681 10681 10682 10682 10682 10683 10683 10684 10684 10685
10679 10680 10681 10681 10682 10682 10683 10683 10684 10685 10686 10687 10687 10688 10689 10689 10688 10687 10686 10685 10685 10685 10685 10685 10685 10684 10683 10683 10683 10683 10681 10680 10679 10679 10678 10678 10678 10679 10679 10680 10682 10683 10682 10682 10682 10681 10681 10681 10680 10680 10680 10680 10680 10680 10681 10681 10680 10680 10679 10680 10680 10679 10677 10676 10677 10677 10677 10677 10676 10676 10676 10677 10677 10677 10677 10678 10678 10678 10679 10679 10679 10680 10680 10680 10680
10675 10676 10677 10678 10678 10678 10678 10679 10680 10681 10682 10683 10683 10684 10685 10685 10685 10684 10683 10682 10681 10681 10681 10681 10681 10681 10680 10679 10679 10680 10679 10677 10676 10676 10676 10676 10676 10677 10677 10678 10678 10679 10680 10680 10680 10678 10678 10678 10678 10678 10678 10677 10677 10677 10678 10677 10676 10675 10676 10676 10676 10676 10674 10673 10674 10675 10674 10673 10672 10671 10672 10672 10671 10672 10673 10674 10674 10675 10675 10675 10675 10676 10676 10676 10676
10671 10672 10673 10674 10674 10674 10674 10675 10676 10677 10678 10678 10679 10680 10680 10681 10681 10681 10680 10679 10678 10677 10677 10678 10679 10679 10678 10676 10675 10676 10675 10674 10673 10673 10673 10674 10674 10675 10675 10676 10676 10677 10677 10677 10677 10676 10675 10675 10675 10675 10675 10674 10673 10674 10675 10674 10671 10670 10671 10671 10671 10671 10671 10670 10670 10671 10670 10670 10668 10667 10667 10666 10666 10666 10669 10670 10671 10671 10671 10671 10672 10672 10672 10672 10672
10667 10668 10669 10670 10670 10670 10670 10671 10672 10673 10674 10674 10675 10676 10676 10677 10677 10677 10677 10676 10675 10674 10673 10674 10675 10676 10676 10674 10672 10671 10672 10671 10670 10669 10669 10670 10670 10671 10672 10672 10673 10674 10674 10673 10673 10672 10672 10672 10672 10672 10672 10671 10670 10670 10671 10671 10668 10667 10666 10665 10665 10665 10665 10665 10665 10666 10666 10665 10665 10663 10663 10662 10661 10662 10663 10665 10666 10667 10667 10668 10668 10668 10669 10668 10668
10664 10665 10665 10666 10666 10666 10667 10667 10668 10669 10670 10670 10671 10672 10673 10673 10674 10674 10674 10673 10672 10671 10670 10670 10672 10673 10674 10672 10669 10668 10668 10667 10667 10666 10666 10666 10666 10667 10668 10668 10669 10669 10669 10669 10668 10668 10668 10668 10668 10668 10667 10667 10666 10666 10666 10665 10664 10663 10662 10661 10660 10660 10659 10659 10659 10660 10661 10661 10660 10659 10658 10658 10657 10658 10659 10660 10661 10662 10663 10663 10663 10664 10664 10664 10664
10660 10661 10662 10663 10663 10663 10664 10664 10664 10665 10666 10666 10667 10668 10669 10670 10671 10671 10671 10670 10670 10668 10667 10666 10668 10670 10671 10670 10667 10665 10664 10664 10663 10663 10663 10663 10663 10663 10664 10664 10665 10664 10664 10664 10663 10663 10663 10663 10663 10663 10662 10662 10661 10660 10660 10659 10658 10658 10657 10656 10655 10655 10654 10654 10654 10654 10654 10655 10655 10655 10654 10654 10654 10654 10655 10656 10657 10657 10658 10658 10659 10659 10659 10659 10659
10656 10657 10658 10659 10659 10660 10660 10661 10661 10661 10662 10663 10663 10664 10665 10666 10667 10668 10668 10667 10667 10666 10664 10663 10664 10665 10666 10666 10664 10662 10661 10661 10660 10660 10660 10659 10660 10660 10660 10660 10660 10660 10660 10659 10659 10659 10659 10658 10658 10658 10657 10656 10656 10655 10654 10654 10653 10652 10651 10650 10649 10649 10649 10648 10648 10648 10648 10649 10650 10650 10650 10650 10650 10650 10651 10652 10653 10653 10653 10654 10654 10654 10655 10655 10655
10652 10653 10654 10655 10655 10656 10657 10657 10657 10658 10658 10659 10659 10660 10661 10662 10663 10664 10664 10664 10664 10663 10661 10660 10660 10660 10661 10661 10660 10659 10658 10658 10657 10656 10656 10656 10656 10656 10656 10656 10656 10655 10655 10655 10655 10654 10654 10653 10653 10652 10652 10651 10650 10649 10648 10648 10647 10646 10645 10644 10644 10643 10643 10642 10642 10643 10643 10644 10644 10645 10646 10646 10646 10646 10646 10647 10647 10648 10649 10649 10649 10649 10649 10650 10651
10648 10649 10650 10651 10652 10652 10653 10654 10654 10654 10655 10655 10655 10656 10656 10657 10658 10660 10661 10661 10660 10660 10658 10657 10657 10656 10656 10656 10656 10656 10655 10654 10654 10653 10652 10652 10653 10653 10652 10652 10652 10651 10651 10650 10650 10649 10649 10648 10648 10647 10646 10646 10645 10644 10643 10642 10642 10641 10640 10640 10639 10639 10638 10638 10638 10638 10638 10639 10639 10640 10640 10641 10641 10641 10641 10642 10642 10642 10643 10644 10644 10644 10644 10645 10645
10644 10645 10646 10646 10647 10648 10649 10650 10650 10651 10652 10652 10652 10652 10652 10652 10653 10655 10656 10656 10656 10656 10655 10654 10653 10652 10652 10652 10652 10652 10651 10651 10650 10650 10649 10649 10649 10649 10649 10648 10648 10647 10647 10646 10646 10645 10644 10644 10643 10642 10642 10641 10640 10640 10639 10638 10638 10637 10636 10636 10635 10635 10634 10634 10634 10634 10634 10634 10634 10635 10635 10636 10636 10636 10637 10637 10637 10637 10638 10638 10639 10639 10640 10640 10640
10639 10640 10641 10642 10642 10643 10644 10645 10646 10647 10647 10648 10648 10648 10647 10647 10648 10649 10650 10651 10651 10651 10651 10650 10649 10649 10648 10648 10648 10648 10647 10647 10647 10647 10646 10646 10646 10645 10645 10645 10644 10644 10643 10642 10642 10641 10640 10640 10639 10638 10638 10637 10637 10636 10636 10635 10634 10634 10633 10632 10631 10631 10630 10630 10630 10630 10629 10629 10630 10630 10631 10631 10631 10632 10632 10632 10632 10632 10633 10633 10633 10634 10634 10634 10634
10634 10635 10636 10637 10637 10638 10638 10639 10640 10641 10642 10643 10643 10643 10643 10643 10643 10643 10644 10645 10646 10646 10646 10646 10645 10644 10644 10643 10643 10643 10644 10644 10643 10643 10643 10643 10642 10641 10640 10640 10640 10640 10639 10638 10638 10637 10636 10636 10635 10635 10634 10633 10633 10632 10632 10631 10631 10630 10629 10629 10628 10627 10626 10626 10625 10625 10625 10625 10625 10626 10626 10626 10626 10626 10627 10627 10627 10627 10627 10627 10628 10628 10628 10628 10629
10629 10630 10631 10632 10633 10633 10634 10635 10635 10636 10637 10637 10637 10638 10638 10638 10638 10638 10639 10640 10640 10641 10641 10640 10640 10640 10639 10638 10638 10639 10640 10640 10640 10640 10640 10639 10638 10637 10636 10636 10636 10635 10635 10634 10634 10633 10632 10632 10631 10630 10629 10628 10628 10627 10627 10626 10626 10625 10625 10624 10624 10623 10622 10621 10621 10620 10621 10621 10621 10621 10621 10621 10621 10621 10621 10621 10621 10621 10621 10621 10621 10621 10622 10622 10622
10624 10625 10626 10628 10629 10629 10630 10630 10631 10631 10631 10632 10632 10633 10633 10633 10633 10633 10634 10634 10635 10635 10635 10635 10635 10635 10634 10634 10633 10634 10634 10635 10635 10635 10636 10635 10634 10633 10632 10632 10631 10631 10630 10629 10629 10628 10627 10627 10626 10625 10624 10623 10623 10622 10621 10621 10620 10619 10619 10618 10618 10617 10616 10615 10615 10615 10615 10615 10616 10616 10616 10616 10615 10615 10615 10615 10615 10614 10614 10614 10614 10614 10614 10614 10614
10619 10620 10621 10622 10623 10624 10625 10626 10626 10626 10626 10627 10627 10628 10629 10629 10629 10629 10629 10629 10630 10630 10630 10630 10630 10630 10629 10629 10628 10628 10629 10630 10630 10631 10632 10631 10630 10628 10627 10627 10626 10626 10625 10625 10624 10623 10622 10621 10620 10619 10619 10618 10618 10617 10616 10615 10614 10614 10613 10612 10611 10610 10609 10609 10609 10609 10609 10609 10610 10610 10609 10609 10609 10609 10608 10608 10607 10607 10607 10607 10607 10607 10607 10607 10607
10614 10615 10616 10617 10618 10619 10620 10621 10621 10621 10622 10622 10622 10623 10624 10624 10624 10624 10625 10625 10625 10625 10626 10626 10625 10624 10624 10623 10622 10622 10623 10624 10625 10626 10627 10626 10624 10624 10623 10622 10621 10621 10620 10619 10618 10618 10617 10616 10615 10614 10613 10613 10612 10611 10610 10610 10609 10608 10607 10606 10605 10603 10602 10602 10602 10602 10603 10603 10603 10602 10602 10602 10602 10602 10602 10601 10600 10600 10599 10599 10599 10599 10599 10599 10599
10608 10609 10610 10611 10613 10614 10615 10615 10616 10616 10617 10617 10617 10618 10619 10619 10620 10620 10621 10621 10621 10621 10621 10621 10620 10619 10618 10617 10617 10616 10617 10618 10619 10621 10621 10620 10619 10618 10618 10617 10616 10615 10615 10614 10613 10612 10612 10611 10609 10608 10608 10608 10606 10605 10604 10604 10604 10603 10602 10601 10599 10598 10597 10596 10596 10596 10596 10596 10595 10595 10595 10596 10596 10596 10596 10595 10594 10593 10592 10591 10591 10591 10590 10590 10590
10603 10605 10606 10607 10607 10608 10609 10609 10610 10611 10612 10612 10613 10613 10614 10614 10615 10616 10616 10616 10616 10616 10616 10616 10616 10614 10614 10613 10612 10612 10612 10612 10613 10615 10615 10615 10614 10613 10613 10612 10610 10610 10609 10608 10608 10607 10606 10605 10603 10603 10602 10601 10600 10598 10598 10598 10598 10597 10596 10595 10594 10593 10591 10591 10591 10591 10590 10589 10588 10589 10591 10591 10591 10590 10590 10589 10587 10586 10584 10584 10583 10583 10582 10582 10581
10599 10600 10602 10602 10603 10603 10604 10605 10605 10606 10607 10608 10608 10609 10609 10610 10610 10611 10611 10611 10611 10611 10611 10612 10611 10610 10609 10608 10607 10607 10607 10607 10608 10608 10608 10609 10609 10608 10607 10607 10605 10604 10603 10602 10602 10602 10601 10599 10598 10597 10597 10595 10593 10592 10591 10591 10592 10591 10591 10590 10589 10588 10587 10586 10586 10586 10585 10584 10585 10586 10586 10585 10584 10584 10583 10582 10580 10578 10577 10576 10575 10574 10573 10573 10573
10595 10596 10597 10598 10598 10599 10599 10600 10600 10601 10602 10603 10603 10604 10604 10605 10605 10605 10604 10604 10605 10606 10607 10607 10606 10605 10604 10603 10602 10602 10602 10602 10602 10602 10602 10602 10603 10603 10602 10602 10601 10599 10597 10596 10596 10596 10596 10594 10593 10592 10591 10590 10587 10586 10586 10586 10586 10586 10585 10585 10584 10584 10583 10582 10582 10582 10581 10581 10581 10581 10580 10579 10578 10576 10575 10573 10571 10569 10568 10567 10566 10565 10564 10564 10563
10591 10592 10593 10593 10593 10593 10593 10594 10595 10596 10597 10598 10598 10599 10599 10599 10599 10599 10599 10599 10600 10601 10602 10602 10601 10600 10599 10598 10597 10596 10596 10597 10597 10596 10596 10595 10596 10596 10595 10596 10595 10594 10593 10591 10590 10589 10589 10588 10587 10586 10586 10585 10583 10582 10582 10581 10581 10581 10581 10580 10579 10579 10578 10578 10578 10577 10576 10576 10575 10574 10573 10572 10571 10569 10567 10565 10563 10561 10559 10558 10557 10556 10555 10555 10554
10587 10587 10588 10588 10588 10587 10586 10587 10588 10589 10591 10592 10592 10593 10593 10593 10593 10593 10593 10594 10594 10595 10596 10596 10596 10596 10595 10593 10592 10592 10591 10591 10591 10590 10589 10589 10588 10588 10587 10588 10588 10587 10587 10586 10584 10582 10582 10581 10580 10579 10579 10580 10580 10579 10578 10578 10576 10575 10575 10574 10573 10573 10572 10572 10572 10571 10570 10569 10568 10567 10566 10564 10563 10561 10559 10556 10554 10552 10550 10549 10548 10547 10546 10546 10545
10582 10582 10582 10582 10582 10582 10580 10579 10581 10582 10583 10585 10586 10587 10587 10587 10588 10588 10588 10588 10588 10588 10589 10589 10590 10590 10590 10589 10588 10587 10587 10586 10585 10585 10584 10583 10582 10581 10580 10579 10579 10579 10578 10577 10576 10575 10575 10575 10575 10574 10573 10573 10573 10573 10573 10573 10571 10570 10568 10568 10567 10566 10565 10565 10564 10562 10561 10561 10560 10559 10557 10556 10554 10552 10550 10548 10546 10543 10542 10540 10539 10538 10538 10537 10536
10575 10576 10576 10576 10576 10576 10574 10573 10573 10574 10575 10577 10579 10581 10582 10581 10582 10582 10582 10582 10582 10582 10582 10583 10583 10584 10584 10583 10583 10582 10582 10581 10580 10579 10578 10577 10576 10575 10574 10573 10572 10571 10570 10569 10568 10567 10567 10567 10568 10568 10568 10567 10566 10566 10566 10565 10564 10563 10561 10560 10559 10559 10558 10557 10556 10554 10552 10552 10552 10550 10548 10546 10545 10543 10541 10539 10537 10535 10533 10532 10531 10529 10529 10528 10527
10568 10569 10569 10569 10569 10570 10569 10568 10567 10568 10568 10568 10570 10572 10574 10574 10574 10574 10574 10575 10575 10576 10576 10577 10577 10577 10577 10577 10577 10577 10576 10575 10575 10574 10573 10573 10572 10571 10569 10568 10566 10565 10563 10562 10561 10560 10560 10559 10559 10560 10562 10561 10560 10558 10557 10557 10555 10554 10553 10552 10551 10550 10550 10549 10547 10545 10543 10543 10543 10541 10538 10537 10535 10534 10532 10531 10529 10527 10525 10523 10522 10521 10520 10519 10518
10560 10561 10561 10562 10562 10563 10563 10563 10563 10563 10563 10562 10562 10563 10565 10565 10566 10566 10566 10567 10568 10569 10569 10570 10570 10570 10571 10571 10571 10570 10569 10569 10568 10568 10568 10567 10567 10566 10565 10563 10562 10560 10558 10556 10555 10554 10553 10552 10552 10552 10553 10553 10552 10550 10549 10548 10546 10545 10544 10543 10542 10541 10541 10540 10539 10536 10534 10534 10535 10533 10530 10528 10526 10524 10523 10522 10520 10518 10516 10514 10512 10511 10510 10510 10509
10554 10554 10554 10555 10555 10556 10557 10557 10557 10557 10557 10557 10556 10556 10556 10557 10558 10559 10559 10560 10560 10561 10562 10562 10563 10563 10563 10564 10564 10563 10563 10562 10561 10561 10561 10561 10560 10560 10559 10558 10557 10555 10553 10551 10549 10548 10547 10546 10546 10545 10545 10544 10544 10543 10541 10539 10538 10537 10535 10534 10533 10533 10533 10532 10531 10528 10526 10525 10526 10525 10521 10518 10516 10515 10514 10513 10511 10509 10507 10505 10504 10502 10501 10500 10500
10547 10547 10547 10548 10549 10549 10550 10550 10550 10550 10551 10551 10550 10550 10550 10550 10550 10550 10551 10552 10552 10553 10553 10555 10556 10556 10556 10556 10556 10556 10556 10555 10554 10553 10553 10553 10553 10552 10552 10551 10550 10548 10547 10545 10544 10542 10541 10540 10540 10539 10537 10536 10535 10534 10533 10531 10530 10529 10527 10526 10525 10524 10524 10524 10523 10520 10517 10516 10516 10514 10511 10508 10507 10506 10505 10504 10503 10501 10499 10497 10495 10494 10492 10491 10491
10541 10540 10540 10540 10540 10541 10541 10542 10542 10542 10542 10542 10543 10542 10542 10542 10542 10542 10542 10543 10544 10544 10545 10546 10548 10548 10549 10549 10549 10549 10548 10547 10546 10545 10545 10546 10545 10545 10544 10543 10542 10541 10539 10538 10536 10534 10533 10532 10531 10530 10529 10527 10526 10524 10523 10522 10521 10520 10518 10517 10515 10514 10513 10513 10513 10511 10508 10506 10505 10503 10501 10498 10497 10497 10497 10496 10494 10493 10491 10488 10486 10484 10483 10482 10481
10536 10535 10534 10533 10532 10532 10531 10532 10533 10533 10533 10533 10534 10534 10534 10534 10534 10535 10535 10535 10536 10536 10537 10538 10539 10539 10540 10540 10541 10540 10540 10539 10537 10537 10537 10537 10537 10537 10536 10534 10533 10531 10530 10529 10527 10525 10524 10523 10522 10521 10519 10518 10517 10515 10514 10512 10511 10510 10508 10507 10505 10504 10504 10503 10503 10501 10499 10497 10495 10493 10491 10489 10488 10488 10488 10486 10485 10483 10482 10480 10478 10476 10474 10472 10471
10531 10530 10530 10528 10527 10526 10525 10525 10524 10524 10525 10526 10526 10526 10526 10526 10527 10527 10528 10528 10528 10529 10529 10530 10530 10530 10531 10531 10531 10531 10531 10530 10529 10528 10528 10528 10527 10527 10525 10524 10522 10521 10520 10519 10518 10517 10516 10515 10514 10513 10512 10510 10509 10507 10506 10505 10503 10502 10500 10499 10497 10496 10496 10495 10494 10492 10489 10487 10486 10484 10482 10480 10478 10477 10477 10476 10475 10474 10472 10470 10468 10467 10464 10463 10461
10525 10525 10525 10524 10522 10521 10521 10520 10518 10517 10516 10517 10518 10518 10519 10519 10519 10520 10520 10520 10521 10521 10521 10521 10520 10520 10521 10521 10521 10521 10521 10521 10520 10519 10519 10518 10517 10516 10514 10513 10512 10511 10511 10510 10510 10509 10508 10507 10506 10505 10505 10504 10502 10501 10499 10498 10497 10495 10494 10492 10490 10489 10488 10487 10485 10482 10480 10477 10475 10474 10473 10470 10467 10465 10464 10463 10463 10463 10461 10459 10458 10456 10455 10453 10452
10519 10520 10520 10518 10518 10518 10517 10516 10514 10512 10510 10509 10509 10509 10510 10511 10511 10511 10512 10512 10513 10513 10513 10512 10511 10511 10511 10511 10511 10510 10510 10510 10509 10509 10508 10507 10507 10506 10505 10504 10503 10503 10502 10502 10501 10500 10500 10499 10499 10498 10497 10495 10494 10493 10492 10491 10490 10488 10486 10484 10482 10480 10479 10477 10475 10473 10470 10468 10466 10465 10464 10461 10457 10454 10452 10450 10450 10450 10449 10448 10447 10446 10445 10444 10442
10514 10515 10514 10510 10510 10513 10513 10512 10510 10508 10506 10504 10503 10502 10503 10503 10502 10502 10502 10503 10503 10504 10504 10503 10503 10503 10504 10504 10503 10502 10502 10501 10501 10500 10499 10499 10498 10497 10496 10495 10495 10494 10494 10493 10493 10492 10492 10491 10491 10490 10489 10487 10486 10485 10484 10482 10481 10479 10477 10474 10472 10470 10469 10467 10465 10463 10461 10459 10457 10455 10453 10451 10448 10445 10442 10439 10437 10437 10436 10435 10434 10434 10434 10434 10432
10508 10509 10507 10504 10503 10504 10505 10506 10505 10502 10498 10496 10497 10499 10499 10498 10496 10495 10495 10495 10495 10496 10496 10494 10494 10495 10495 10495 10494 10493 10493 10492 10492 10492 10492 10491 10490 10489 10488 10487 10486 10486 10485 10484 10484 10483 10483 10483 10482 10481 10480 10479 10478 10476 10475 10473 10472 10470 10467 10465 10462 10460 10458 10457 10455 10453 10451 10450 10448 10445 10442 10440 10438 10436 10433 10429 10426 10424 10423 10422 10420 10420 10421 10422 10421
10500 10501 10500 10498 10499 10498 10496 10499 10501 10498 10491 10486 10488 10492 10493 10492 10491 10489 10488 10489 10488 10488 10488 10486 10485 10485 10486 10486 10485 10484 10483 10482 10481 10481 10481 10481 10480 10479 10479 10478 10477 10476 10476 10475 10474 10473 10473 10472 10470 10469 10469 10468 10467 10466 10464 10463 10461 10459 10457 10455 10453 10450 10448 10446 10444 10442 10439 10438 10436 10433 10430 10428 10425 10424 10423 10420 10416 10413 10410 10408 10407 10405 10406 10408 10409
10491 10492 10491 10491 10492 10490 10489 10491 10494 10493 10487 10481 10481 10484 10485 10484 10484 10482 10481 10480 10480 10479 10479 10478 10476 10475 10475 10476 10476 10475 10474 10472 10471 10470 10470 10469 10469 10468 10467 10466 10465 10465 10465 10464 10463 10463 10462 10460 10459 10458 10457 10456 10455 10454 10453 10452 10450 10448 10447 10445 10442 10440 10437 10434 10431 10428 10426 10424 10421 10419 10417 10416 10413 10411 10410 10409 10407 10403 10398 10394 10393 10391 10391 10393 10395